ROMMA est une association bénévole à but non lucratif. Votre soutien est indispensable : ADHERER à ROMMA ou FAIRE un DON

Saint-Léger-les-Mélèzes - (05, Hautes-Alpes)

Champsaur (1245 m)   Longitude: 6° 11' 42" E    Latitude: 44° 38' 38" N Station partenaire n°51
 

Détail journalier du     <<     >>

Température Humidité Vent Dir Rafale Dir. rafale Ensol.
Heure (°C) (%) (km/h) (km/h) (min)
01:00 1.8685S10S0
02:00 1.6683S8S0
03:00 1.6683S10S0
04:00 1.1695S10S0
05:00 1.3693S10S0
06:00 1.1694S10S0
07:00 0.9684S8S0
08:00 1.1683S6S0
09:00 1.2673S6S0
10:00 3.2591S5S0
11:00 4.76003ENE0
12:00 6.9561OSO6O20
13:00 8.9502OSO11OSO60
14:00 10.3462SO13ONO60
15:00 10.4483SO18SSE60
16:00 10.3513SSO13OSO50
17:00 10.1532OSO6SO10
18:00 7.9614SSO11SSO0
19:00 6.1673S10S0
20:00 5.7661S10S0
21:00 4.7704S8S0
22:00 4.2713S6S0
23:00 3.7745S8S0
minuit 3.87406SSE0

Graphique du 22-02-2019

 

Serveur OMMA